Weather in Kipen'

Russia / Saint-Petersburg and Leningrad Oblast     59°41′04″N   29°51′04″E
temp.,
°C
wind,
m/s
gust,
m/s
humid.,
%
clouds,
%
prec.,
mm/h
press.,
hPa
HPBL,
m
29 july, thu
thu2900:00+17ssw119428 0.4 100616
03:00+16sw3895100 0.7 1005137
06:00+15wsw41093100 0.0 1004240
09:00+17wsw41086100 0.0 1004417
12:00+23wsw475910 0.3 10031271
15:00+22wsw476688 1.6 10021053
18:00+21wsw397588 0.9 1001665
21:00+18w23805 0.9 100153
30 july, fri
fri3000:00+15sw249299 0.0 100164
03:00+16wsw4118174 0.0 1001403
06:00+15sw411815 0.0 1001502
09:00+19sw6960100 0.0 10001379
12:00+21sw71048100 0.0 10002050
15:00+20sw7135442 0.4 9991737
18:00+22s61043100 0.0 9972408
21:00+17ssw5126689 0.1 996875
31 july, sat
sat3100:00+15ssw71476100 0.3 9941140
03:00+14ssw71493100 1.2 993935
06:00+14wsw7139399 0.4 9921040
09:00+15w7139295 1.3 9941092
12:00+18w7128226 1.1 9971046
15:00+22w79501 1.3 10001527
18:00+22w5104719 0.0 10011372
21:00+17wsw23678 0.0 100154
1 august, sun
sun100:00+14sw24845 0.0 100260
03:00+14ssw369598 0.0 1002121
06:00+15s41095100 0.7 1001306
09:00+16s4109692 3.1 999583
12:00+21sw7116499 0.3 9991368
15:00+20sw71269100 0.9 10001410
18:00+19wsw712749 0.6 10001244
21:00+16wsw412892 1.6 1002584
2 august, mon
mon200:00+14sw513890 0.0 1002520
03:00+13wsw514814 0.0 1004535
06:00+13sw41285100 0.0 1003381
09:00+18sw586381 0.0 1003970
12:00+21sw5654100 0.1 10031670
15:00+21ssw4549100 0.3 10021487
18:00+19nw2462100 0.0 1001190
21:00+15se1183100 0.6 100016